Find OneWeb SL0148

NORAD ID: 48059 Int'l Des: 2021-025 Owner: ONEWEBN Country: UK Constellation: oneweb operational
別名: ONEWEB-0148 spacetrack, celestrak
LEOCIRCULARPOLARONEWEB_TYPE

現在のビュー

3D地球を読み込み中...

About OneWeb SL0148

OneWeb SL0148 (NORAD 48059) is a oneweb constellation satellite launched Mar 25, 2021 by ONEWEBN of UK. It operates in LEO, CIRCULAR, POLAR, ONEWEB_TYPE orbit with a mass of 148.00 kg.

次回通過

Passes for default location (London). Set your location on the main map for personalized predictions.

高度履歴

Loading altitude history...

軌道要素

1 48059U 21025T 26265.09562562 .00000296 00000-0 77563-3 0 9990
2 48059 87.8910 300.9454 0001988 110.5903 249.5439 13.13470325266336
Epoch: Sep 22, 2026 • Age: 16 hours

現在のステータス

高度 1232.8 km
遠地点 / 近地点 N/A
速度 7.24 km/s
衛星直下点 -56.98°S, 149.42°W
打ち上げ日 Mar 25, 2021
運用期間 5.4 years
タイプ internet

技術仕様

分類 Payload
質量 148.00 kg
乾燥質量 140.00 kg
長さ 1.30 m
直径 1.00 m
スパン 5.00 m
形状 ? Trapezoid+2 pan
製造者 ONEWUS
バスタイプ ARROW
フェーズステータス In Orbit
所有者/国 ONEWEBN/UK

Most Searched